Regional Weather Roundup
Issued by NWS Upton, NY

Current Version | Previous Version | Graphics & Text | Print | Product List | Glossary Off
Versions: 1 2 3 4 5 6 7 8 9 10 11 12 13 14 15 16 17 18 19 20 21 22 23 24 25 26 27 28 29 30 31 32 33 34 35 36 37 38 39 40 41 42 43 44 45 46 47 48 49 50

213
ASUS41 KOKX 231804
RWROKX

REGIONAL WEATHER ROUNDUP
NATIONAL WEATHER SERVICE NEW YORK NY
200 PM EDT MON MAY 23 2016

NOTE: "FAIR" INDICATES FEW OR NO CLOUDS BELOW 12,000 FEET WITH NO
SIGNIFICANT WEATHER AND/OR OBSTRUCTIONS TO VISIBILITY.

NYZ071-072-176-178-NJZ106-104-231900-
NEW YORK CITY METRO AREA


CITY           SKY/WX    TMP DP  RH WIND       PRES   REMARKS
CENTRAL PARK   CLOUDY    77  50  38 VRB6      29.91F
LAGUARDIA APRT MOSUNNY   74  57  55 VRB6      29.89F
KENNEDY INTL   PTSUNNY   68  49  50 S8        29.92F
NEWARK/LIBERTY PTSUNNY   71  53  52 SE12      29.89F
BRNX BOT. GARD   N/A     73  52  46 E5        29.89F
TETERBORO      MOSUNNY   77  49  37 SE13      29.87F
$$

NYZ177-179-078>081-231900-
LONG ISLAND NEW YORK

CITY           SKY/WX    TMP DP  RH WIND       PRES   REMARKS
FARMINGDALE    SUNNY     70  50  49 CALM      29.90F
ISLIP          MOSUNNY   71  49  45 S8        29.89F
SHIRLEY        SUNNY     73  49  42 SE8       29.90F
RIVERHEAD        N/A     72  50  46 SW3       29.89F
WESTHAMPTON    SUNNY     68  48  48 SE8       29.90F
EAST HAMPTON   FAIR      71  46  40 SE7       29.89F
MONTAUK POINT    N/A     71  46  40 VRB5      29.90F
$$

NYZ052-065-067-231900-
HUDSON VALLEY

CITY           SKY/WX    TMP DP  RH WIND       PRES   REMARKS
WHITE PLAINS   MOSUNNY   72  53  51 SE8       29.89F
NEWBURGH       MOSUNNY   77  52  41 E9G21     29.90F
MONTGOMERY     SUNNY     79  52  38 NE9       29.88F
POUGHKEEPSIE   CLOUDY    81  52  36 N8G17     29.87F
ALBANY         MOSUNNY   79  43  27 NE17G24   29.91F
$$

NJZ001-105-106-008-010-013-015-019>022-104-231900-
NEW JERSEY

CITY           SKY/WX    TMP DP  RH WIND       PRES   REMARKS
NEWARK/LIBERTY PTSUNNY   71  53  52 SE12      29.89F
TETERBORO      MOSUNNY   77  49  37 SE13      29.87F
CALDWELL       MOSUNNY   77  51  40 E10       29.89F
MORRISTOWN     PTSUNNY   77  52  41 E8G15     29.89F
SOMERVILLE     PTSUNNY   78  51  38 NE7       29.86F
SUSSEX         MOSUNNY   76  51  41 NE9G16    29.90F
ANDOVER          N/A     77  49  37 VRB7      29.90F
TRENTON        PTSUNNY   75  52  44 E7        29.88F
MILLVILLE      CLOUDY    73  52  47 N9        29.89F
ATLANTIC CITY  CLOUDY    68  50  52 E13       29.92S
WRIGHTSTOWN    CLOUDY    72  55  55 VRB7      29.87F
TOMS RIVER     PTSUNNY   70  50  49 E8        29.92S
BELMAR         CLOUDY    68  52  56 VRB6      29.92F
$$

PAZ047>061-062-071-231900-
EASTERN PENNSYLVANIA

CITY           SKY/WX    TMP DP  RH WIND       PRES   REMARKS
PHILADELPHIA   CLOUDY    76  54  46 E10       29.90F
ALLENTOWN      SUNNY     77  50  38 VRB5G16   29.89F
SCRANTON       TSTM      65  59  81 S5        29.92F
$$

CTZ002-004>006-009-010-012-RIZ004-006-007-MAZ004-011-015-231900-
SOUTHERN NEW ENGLAND
 IN CT

CITY           SKY/WX    TMP DP  RH WIND       PRES   REMARKS
BRADLEY INTL   PTSUNNY   80  49  33 N8        29.87F
HARTFORD       PTSUNNY   78  52  40 N9        29.87F
DANBURY        PTSUNNY   76  46  34 NE12G18   29.90F
WTRBRY/OXFORD  MOSUNNY   73  48  40 NE15G21   29.92F
BRIDGEPORT     SUNNY     70  50  49 S7        29.90F
MERIDEN        MOSUNNY   78  51  38 NE10      29.88F
NEW HAVEN      MOSUNNY   70  51  51 S9        29.89F
CHESTER        MOCLDY    73  52  46 VRB7      29.88F
GROTON         MOSUNNY   65  52  62 S7        29.89F
WILLIMANTIC    PTSUNNY   80  44  27 NE14G23   29.87F

 IN RI

CITY           SKY/WX    TMP DP  RH WIND       PRES   REMARKS
PROVIDENCE     MOSUNNY   78  45  30 NE14G20   29.88F
BLOCK ISLAND   SUNNY     69  47  45 E9        29.90F
WESTERLY       MOSUNNY   72  41  32 S10       29.89F

 IN MA

CITY           SKY/WX    TMP DP  RH WIND       PRES   REMARKS
BOSTON         MOSUNNY   71  52  50 SE12      29.90F
WORCESTER      SUNNY     74  42  31 NE14G21     N/A
WESTFIELD      PTSUNNY   77  45  32 NE10      29.88F
PROVINCETOWN   PTSUNNY   62  52  69 N10       29.91F
NANTUCKET      MOSUNNY   71  51  49 N17       29.88F
$$

ANZ330-335-338-340-345-350-353-355-231900-
COASTAL MARINE OBSERVATIONS


STATION/POSITION TIME  SKY/WX   TEMP    WIND        PRES    VSBY  WAVE
                                AIR SEA DIR/SP/G                  HT/PER
                 (UTC)          (F)     (DEG/KT/KT) (MB)    (MI)  (FT/S)
NY HARB ENTRANCE 1650            59 58  140/  6/  6 1013.0          4/ 8
20S FIRE ISLAND  1650            57 56   30/  2/  4 1012.8          4/ 8
GREAT SOUTH BAY  1700            63 63  160/  6/  6   N/A
23 SSW MONTAUK P 1750            60 56  350/  4/  4 1012.0          3/ 8
15 E BARNEGAT LI 1722               54                N/A           4/10
HUDSON CANYON    1650            54 53              1011.8          4/ 8
KINGS POINT      1700            64 56              1012.5
EXECUTION ROCKS  NOT AVBL
CENTRAL LI SOUND 1700            61     220/  6/  8   N/A           0
EASTERN LI SOUND 1700            58 54  180/  8/  8   N/A
ROBBINS REEF     1700            62     170/ 15/ 15 1012.0
$$


>>>>>>>>>>>>>>>>>>>>>>>>>>>> KEY <<<<<<<<<<<<<<<<<<<<<<<<<<<
>                                                          <
>     SKY/WX - SKY CONDITION/PRESENT WEATHER               <
>     TMP    - TEMPERATURE IN FAHRENHEIT                   <
>     DP     - DEWPOINT IN FAHRENHEIT                      <
>     RH     - RELATIVE HUMIDITY IN PERCENT                <
>     WIND   - DIRECTION AND SPEED IN MPH                  <
>     PRES   - MEAN SEA LEVEL PRESSURE IN INCHES OF HG     <
>     WCI    - WIND CHILL INDEX                            <
>     VSB    - VISIBILITY IN MILES                         <
>     HX     - HEAT INDEX                                  <
>     TC     - TEMPERATURE IN CELSIUS                      <
>     VRB    - VARIABLE WIND DIRECTION                     <
>                                                          <
>>>>>>>>>>>>>>>>>>>>>>>>>>>> KEY <<<<<<<<<<<<<<<<<<<<<<<<<<<






USA.gov is the U.S. government's official web portal to all federal, state and local government web resources and services.